[[[{"header":{"parameterUnit":"kt","parameterCategory":2,"dx":1,"dy":1,"la1":30.253999710083008,"la2":30.299108505249023,"lo1":-89.0895004272461,"lo2":-89.04439544677734,"nx":28,"ny":28,"refTime":"2022-10-13T21:00:00:Z","depth":0,"parameterNumber":1,"parameterNumberName":"U-component_of_WINDS"},"data":[-7.2655,-7.2786,-7.2765,-7.2905,-7.291,-7.3002,-7.3029,-7.306,-7.308,-7.3188,-7.3247,-7.3238,-7.3249,-7.3314,-7.3377,-7.3372,-7.3402,-7.3465,-7.3449,-7.3183,-7.3144,-7.3108,-7.3076,-7.3471,-7.3471,-7.3728,-7.3731,-7.3732,-7.2467,-7.2473,-7.254,-7.259,-7.2648,-7.2575,-7.2608,-7.2662,-7.2747,-7.2771,-7.2826,-7.2919,-7.299,-7.2978,-7.3043,-7.3105,-7.3075,-7.3125,-7.3121,-7.3125,-7.2839,-7.2805,-7.3149,-7.3149,-7.3149,-7.3149,-7.3148,-7.3148,-7.212,-7.2199,-7.2216,-7.2288,-7.2307,-7.2341,-7.2413,-7.2399,-7.2464,-7.2527,-7.2487,-7.2582,-7.2602,-7.2667,-7.2683,-7.2757,-7.2697,-7.2745,-7.2758,-7.2772,-7.2792,-7.2431,-7.2766,-7.2765,-7.2764,-7.2763,-7.2762,0,-7.186,-7.1836,-7.1897,-7.1953,-7.2004,-7.2045,-7.2078,-7.2121,-7.2061,-7.2117,-7.2197,-7.2238,-7.2322,-7.2395,-7.2448,-7.2454,-7.2384,-7.2373,-7.2406,-7.243,-7.2445,-7.2443,-7.1982,-7.2363,-7.236,-7.2357,-7.2355,-7.2354,-7.1511,-7.1604,-7.1609,-7.1656,-7.1667,-7.1743,-7.1783,-7.1722,-7.1767,-7.1799,-7.1872,-7.1942,-7.1996,-7.2127,-7.2109,-7.2171,-7.2138,-7.2287,-7.2147,-7.2166,-7.2145,-7.2142,-7.2152,-7.2317,-7.2321,-7.2325,-7.2328,0,-7.1318,-7.1279,-7.1415,-7.1409,-7.1411,-7.1512,-7.1507,-7.1582,-7.1559,-7.166,-7.168,-7.1645,-7.1723,-7.168,-7.176,-7.1736,-7.1907,-7.187,-7.1901,-7.1892,-7.2025,-7.2014,-7.2452,-7.2508,-7.2094,-7.2098,-7.2101,0,-7.1007,-7.113,-7.1065,-7.1146,-7.1281,-7.1215,-7.1352,-7.1345,-7.1358,-7.1437,-7.1348,-7.1424,-7.1355,-7.1426,-7.1389,-7.152,-7.1534,-7.1524,-7.1514,-7.1534,-7.1536,-7.156,-7.1542,-7.1481,-7.1478,-7.1476,-7.1475,0,-7.0711,-7.0818,-7.0948,-7.0967,-7.0972,-7.1035,-7.104,-7.1053,-7.1092,-7.1136,-7.1161,-7.1217,-7.1248,-7.1293,-7.1246,-7.1153,-7.1403,-7.1265,-7.1394,-7.1396,-7.1453,-7.1451,-7.1847,-7.1472,-7.1471,-7.1471,-7.147,0,-7.0454,-7.0498,-7.0691,-7.0694,-7.0725,-7.081,-7.086,-7.0922,-7.0942,-7.0924,-7.0957,-7.0893,-7.0999,-7.0867,-7.1015,-7.0908,-7.0944,-7.0943,-7.0951,-7.0961,-7.0814,-7.1048,-7.1427,-7.1467,-7.0968,-7.0963,-7.096,0,-7.0129,-7.0311,-7.0255,-7.044,-7.0518,-7.0413,-7.0506,-7.0525,-7.0508,-7.0573,-7.0554,-7.0628,-7.0519,-7.0536,-7.0615,-7.0599,-7.0738,-7.0578,-7.0677,-7.0682,-7.0679,-7.1026,-7.1095,-7.1348,-7.0905,-7.0911,-7.0915,0,-6.9871,-6.9873,-6.991,-6.9928,-6.9941,-7.0005,-7.0112,-7.0169,-7.0216,-7.0245,-7.0335,-7.0435,-7.0358,-7.0387,-7.0339,-7.0423,-7.0642,-7.0329,-7.0328,-7.039,-7.0872,-7.0938,-7.0981,-7.0592,-7.0598,-7.0603,-7.0872,0,-6.9499,-6.9582,-6.9678,-6.9718,-6.976,-6.9871,-6.9822,-6.9872,-6.9822,-6.98,-6.9929,-6.9931,-6.999,-7.0024,-6.9975,-7.018,-7.0139,-7.0056,-6.9925,-7.0151,-7.0239,-7.0275,-6.9799,-6.9795,-6.9791,-6.9788,0,0,-6.9199,-6.9318,-6.925,-6.935,-6.9381,-6.9268,-6.9392,-6.9408,-6.9446,-6.9471,-6.9396,-6.9539,-6.9544,-6.9706,-6.9772,-6.9795,-6.9828,-6.975,-7.0043,-7.0072,-7.0098,-7.0193,-7.023,-6.9782,-6.9781,-6.978,-6.9778,0,-6.9053,-6.9058,-6.9179,-6.9193,-6.9212,-6.9182,-6.9211,-6.9209,-6.9201,-6.9324,-6.923,-6.93,-6.9414,-6.9434,-6.9458,-6.9728,-6.9654,-6.9749,-6.9913,-7.0009,-7.0043,-7.0072,-7.0172,-7.0208,-6.977,-6.977,-6.9771,0,-6.8793,-6.8791,-6.8843,-6.8905,-6.8916,-6.8997,-6.8848,-6.8939,-6.9,-6.887,-6.8994,-6.8989,-6.9009,-6.9166,-6.9234,-6.9169,-6.95,-6.9384,-6.9405,-6.9412,-6.9504,-6.9544,-6.9579,-6.911,-6.9108,-6.9106,0,0,-6.8674,-6.8749,-6.8726,-6.887,-6.8883,-6.884,-6.8877,-6.883,-6.8848,-6.8857,-6.8847,-6.887,-6.8935,-6.898,-6.9039,-6.9217,-6.9218,-6.9305,-6.9336,-6.9362,-6.9383,-6.9481,-6.9521,-6.9098,-6.9098,-6.9098,0,0,-6.8616,-6.8595,-6.854,-6.8699,-6.8721,-6.8708,-6.8798,-6.873,-6.8777,-6.8759,-6.8683,-6.8686,-6.8831,-6.8829,-6.8729,-6.8992,-6.8863,-6.8886,-6.8988,-6.9027,-6.9057,-6.9056,-6.8577,0,0,0,0,0,-6.844,-6.8597,-6.8548,-6.8567,-6.8644,-6.8735,-6.8745,-6.8686,-6.8596,-6.867,-6.8651,-6.8567,-6.876,-6.867,-6.8691,-6.8803,-6.8997,-6.9015,-6.9032,-6.9206,-6.9246,-6.9281,0,0,0,0,0,0,-6.8447,-6.8471,-6.8543,-6.8538,-6.8554,-6.8729,-6.8565,-6.8553,-6.8587,-6.8569,-6.8574,-6.8567,-6.8519,-6.8656,-6.8675,-6.8783,-6.857,-6.9004,-6.9019,-6.9033,-6.9219,-6.9253,-6.9282,0,0,0,0,0,-6.8452,-6.8471,-6.861,-6.8535,-6.8549,-6.8509,-6.8558,-6.8547,-6.8572,-6.8543,-6.8535,-6.8525,-6.8524,-6.8536,-6.8667,-6.8776,-6.8556,-6.8564,-6.9014,-6.9026,-6.9037,-6.9236,0,0,0,0,0,0,-6.8456,-6.8462,-6.8612,-6.8614,-6.847,-6.8497,-6.85,-6.8543,-6.8543,-6.8536,-6.849,-6.8476,-6.8529,-6.8537,-6.8548,-6.8777,-6.8545,-6.8552,-6.8557,-6.9023,-6.9032,-6.9041,0,0,0,0,0,0,-6.8451,-6.8465,-6.8613,-6.8535,-6.8527,-6.8488,-6.849,-6.8591,-6.8545,-6.8489,-6.8477,-6.8484,-6.8514,-6.854,-6.8547,-6.8708,-6.8536,-6.8543,-6.8548,-6.8552,-6.9031,-6.9038,0,0,0,0,0,0,-6.8456,-6.8467,-6.8533,-6.8528,-6.8521,-6.8542,-6.8576,-6.8659,-6.8477,-6.8491,-6.8459,-6.8451,-6.8519,-6.8525,-6.8547,-6.8706,-6.8707,-6.8536,-6.8541,-6.8545,-6.8547,0,0,0,0,0,0,0,-6.846,-6.8397,-6.8598,-6.8523,-6.8516,-6.8635,-6.8635,-6.8636,-6.8475,-6.8468,-6.8461,-6.8454,-6.8494,-6.8502,-6.8511,-6.8704,0,0,-6.8536,-6.8539,0,0,0,0,0,0,0,0,-6.8391,-6.8395,-6.8598,-6.8599,-6.8599,-6.8635,-6.8635,-6.8636,-6.8474,-6.8468,-6.8463,-6.8457,-6.8497,-6.8503,-6.851,0,0,0,0,0,0,0,0,0,0,0,0,0,0,0,-6.8598,-6.8599,0,-6.8635,-6.8635,-6.8636,-6.8473,-6.8469,-6.8464,-6.8459,-6.8498,-6.8504,-6.8509,0,0,0,0,0,0,0,0,0,0,0,0,0,0,0,0,0,0,0,0,0,0,0,0,0,0,0,0,0,0,0,0,0,0,0,0,0,0,0,0,0,0,0,0,0,0,0,0,0,0,0,0,0,0,0,0,0,0,0,0,0,0,0,0,0,0,0,0,0]}],[{"header":{"parameterUnit":"kt","parameterCategory":2,"dx":1,"dy":1,"la1":30.253999710083008,"la2":30.299108505249023,"lo1":-89.0895004272461,"lo2":-89.04439544677734,"nx":28,"ny":28,"refTime":"2022-10-13T21:00:00:Z","depth":0,"parameterNumber":2,"parameterNumberName":"V-component_of_WINDS"},"data":[-3.5577,-3.5622,-3.5601,-3.5643,-3.5631,-3.5657,-3.5659,-3.566,-3.5655,-3.5683,-3.5696,-3.568,-3.5667,-3.5678,-3.5691,-3.5683,-3.5691,-3.5722,-3.5708,-3.5586,-3.5568,-3.5551,-3.5538,-3.5724,-3.5724,-3.5838,-3.5839,-3.584,-3.5488,-3.5476,-3.5492,-3.5494,-3.5507,-3.5464,-3.5461,-3.5476,-3.55,-3.5495,-3.5506,-3.553,-3.5546,-3.5523,-3.5535,-3.5556,-3.5537,-3.5561,-3.556,-3.5559,-3.5427,-3.5414,-3.5576,-3.5576,-3.5576,-3.5576,-3.5576,-3.5576,-3.532,-3.5348,-3.5337,-3.5354,-3.5349,-3.535,-3.5374,-3.5352,-3.5369,-3.5378,-3.535,-3.5377,-3.5369,-3.5373,-3.537,-3.5391,-3.5361,-3.5381,-3.5386,-3.5392,-3.5401,-3.5241,-3.5392,-3.5391,-3.5391,-3.539,-3.539,0,-3.5191,-3.5171,-3.5185,-3.5193,-3.5205,-3.5209,-3.521,-3.5224,-3.5175,-3.5191,-3.5211,-3.522,-3.5237,-3.5254,-3.5261,-3.5253,-3.5212,-3.5205,-3.5218,-3.5233,-3.5245,-3.524,-3.5028,-3.5201,-3.5199,-3.5198,-3.5197,-3.5196,-3.5021,-3.5057,-3.5034,-3.5047,-3.5042,-3.5064,-3.5073,-3.5027,-3.5039,-3.5033,-3.5061,-3.5077,-3.5088,-3.5126,-3.5102,-3.5115,-3.5095,-3.5164,-3.5097,-3.5109,-3.5097,-3.5096,-3.51,-3.5178,-3.5181,-3.5182,-3.5184,0,-3.4927,-3.4892,-3.4941,-3.4915,-3.491,-3.495,-3.4928,-3.4955,-3.4932,-3.4966,-3.4971,-3.4935,-3.4957,-3.4922,-3.494,-3.4921,-3.4987,-3.4966,-3.4989,-3.4984,-3.5042,-3.5037,-3.5236,-3.526,-3.5066,-3.5068,-3.5069,0,-3.4769,-3.4818,-3.4763,-3.4793,-3.4846,-3.4799,-3.4852,-3.4838,-3.4829,-3.4855,-3.4801,-3.4827,-3.4778,-3.4799,-3.4771,-3.4818,-3.4821,-3.481,-3.4802,-3.4816,-3.4817,-3.4823,-3.4814,-3.4782,-3.4781,-3.4781,-3.478,0,-3.4627,-3.4655,-3.4704,-3.4705,-3.4683,-3.4707,-3.47,-3.4689,-3.4699,-3.4705,-3.4711,-3.4722,-3.4729,-3.4738,-3.4703,-3.4659,-3.476,-3.4692,-3.4748,-3.475,-3.4774,-3.4773,-3.4956,-3.4779,-3.4778,-3.4778,-3.4778,0,-3.4495,-3.4501,-3.4578,-3.4558,-3.4567,-3.46,-3.4607,-3.4626,-3.462,-3.4604,-3.4609,-3.4569,-3.4607,-3.4543,-3.4595,-3.4548,-3.4558,-3.455,-3.4553,-3.4556,-3.4485,-3.4595,-3.4772,-3.4789,-3.4557,-3.4555,-3.4553,0,-3.4342,-3.4409,-3.4369,-3.4443,-3.4469,-3.4406,-3.4441,-3.4437,-3.4419,-3.4438,-3.4418,-3.4441,-3.4386,-3.4388,-3.4418,-3.4399,-3.446,-3.439,-3.442,-3.4422,-3.4425,-3.4587,-3.4623,-3.4736,-3.4529,-3.4531,-3.4533,0,-3.422,-3.4193,-3.4209,-3.4208,-3.4195,-3.4217,-3.4257,-3.427,-3.4285,-3.4287,-3.432,-3.4351,-3.4311,-3.4316,-3.4285,-3.4319,-3.4417,-3.4271,-3.427,-3.4299,-3.4514,-3.4547,-3.4567,-3.4389,-3.4392,-3.4394,-3.4514,0,-3.4028,-3.4057,-3.4099,-3.41,-3.4111,-3.4155,-3.4117,-3.4134,-3.4102,-3.4082,-3.413,-3.4118,-3.4132,-3.4144,-3.4115,-3.4202,-3.4183,-3.4139,-3.4075,-3.4182,-3.422,-3.4236,-3.4021,-3.4018,-3.4017,-3.4015,0,0,-3.3891,-3.3933,-3.3888,-3.3925,-3.3932,-3.3867,-3.3917,-3.3916,-3.3917,-3.3923,-3.3887,-3.3931,-3.3924,-3.3986,-3.4016,-3.4022,-3.4034,-3.3999,-3.4131,-3.4144,-3.4156,-3.4198,-3.4215,-3.4012,-3.4011,-3.4011,-3.401,0,-3.3813,-3.3806,-3.3857,-3.3853,-3.3847,-3.3823,-3.3835,-3.3818,-3.3808,-3.3854,-3.3801,-3.3825,-3.3862,-3.3861,-3.3866,-3.399,-3.3949,-3.3997,-3.4076,-3.4114,-3.413,-3.4143,-3.4188,-3.4204,-3.4006,-3.4006,-3.4006,0,-3.3687,-3.3673,-3.3694,-3.3706,-3.3702,-3.3731,-3.3653,-3.3688,-3.3709,-3.3637,-3.3685,-3.3674,-3.367,-3.3734,-3.3761,-3.3729,-3.3873,-3.3821,-3.3831,-3.3834,-3.3869,-3.3888,-3.3904,-3.3686,-3.3685,-3.3685,0,0,-3.3625,-3.3652,-3.3624,-3.3687,-3.3688,-3.3653,-3.3665,-3.3635,-3.3632,-3.3632,-3.3617,-3.3616,-3.3637,-3.3652,-3.367,-3.3745,-3.3741,-3.3783,-3.3798,-3.3811,-3.382,-3.3859,-3.3877,-3.3681,-3.3681,-3.3681,0,0,-3.3596,-3.3566,-3.3534,-3.3602,-3.3601,-3.3578,-3.3618,-3.3579,-3.3591,-3.3582,-3.3534,-3.3532,-3.3591,-3.3583,-3.3538,-3.3646,-3.3583,-3.3593,-3.365,-3.3668,-3.3683,-3.3685,-3.3459,0,0,0,0,0,-3.3497,-3.3569,-3.3541,-3.3547,-3.3563,-3.3594,-3.3595,-3.3557,-3.3513,-3.3545,-3.3526,-3.3481,-3.3549,-3.3508,-3.3515,-3.3565,-3.3634,-3.3642,-3.365,-3.3741,-3.3761,-3.3777,0,0,0,0,0,0,-3.3499,-3.3506,-3.3539,-3.352,-3.3523,-3.3591,-3.3507,-3.3499,-3.3508,-3.3499,-3.3486,-3.3481,-3.3449,-3.3502,-3.3509,-3.3557,-3.3456,-3.3637,-3.3644,-3.3651,-3.3748,-3.3764,-3.3778,0,0,0,0,0,-3.3501,-3.3506,-3.3542,-3.3519,-3.3522,-3.3487,-3.3504,-3.3497,-3.3503,-3.3475,-3.3468,-3.3474,-3.3451,-3.3454,-3.3506,-3.3555,-3.3451,-3.3454,-3.3642,-3.3648,-3.3652,-3.3756,0,0,0,0,0,0,-3.3501,-3.3499,-3.3542,-3.3542,-3.3489,-3.3483,-3.348,-3.3495,-3.3478,-3.3472,-3.346,-3.3452,-3.3454,-3.3456,-3.3458,-3.3557,-3.3447,-3.345,-3.3452,-3.3646,-3.3651,-3.3654,0,0,0,0,0,0,-3.3496,-3.3499,-3.3542,-3.3506,-3.3501,-3.3479,-3.3477,-3.3515,-3.3478,-3.3463,-3.3457,-3.3457,-3.345,-3.3457,-3.3459,-3.352,-3.3444,-3.3447,-3.3449,-3.345,-3.365,-3.3653,0,0,0,0,0,0,-3.3497,-3.35,-3.3506,-3.3502,-3.3498,-3.3489,-3.3512,-3.3531,-3.3447,-3.3465,-3.3439,-3.3435,-3.3453,-3.3454,-3.346,-3.3521,-3.352,-3.3445,-3.3446,-3.3447,-3.3448,0,0,0,0,0,0,0,-3.3497,-3.3487,-3.3545,-3.3499,-3.3495,-3.3536,-3.3536,-3.3536,-3.3447,-3.3443,-3.344,-3.3437,-3.343,-3.3433,-3.3436,-3.3521,0,0,-3.3444,-3.3446,0,0,0,0,0,0,0,0,-3.3485,-3.3487,-3.3545,-3.3545,-3.3545,-3.3536,-3.3536,-3.3536,-3.3446,-3.3443,-3.344,-3.3438,-3.3431,-3.3433,-3.3435,0,0,0,0,0,0,0,0,0,0,0,0,0,0,0,-3.3545,-3.3545,0,-3.3536,-3.3536,-3.3536,-3.3446,-3.3443,-3.3441,-3.3439,-3.3431,-3.3433,-3.3435,0,0,0,0,0,0,0,0,0,0,0,0,0,0,0,0,0,0,0,0,0,0,0,0,0,0,0,0,0,0,0,0,0,0,0,0,0,0,0,0,0,0,0,0,0,0,0,0,0,0,0,0,0,0,0,0,0,0,0,0,0,0,0,0,0,0,0,0,0]}]]]